Regional Weather Roundup
Issued by NWS Goodland, KS

Home | Current Version | Previous Version | Graphics & Text | Print | Product List | Glossary On
Versions: 1 2 3 4 5 6 7 8 9 10 11 12 13 14 15 16 17 18 19 20 21 22 23 24 25 26 27 28 29 30 31 32 33 34 35 36 37 38 39 40 41 42 43 44 45 46 47 48 49 50
000
ASUS43 KGLD 030359
RWRGLD

GOODLAND FORECAST AREA HOURLY WEATHER ROUNDUP
NATIONAL WEATHER SERVICE GOODLAND KS
1000 PM MDT WED SEP 02 2015

...OFFICIAL OBSERVATIONS...

CITY           SKY/WX    TMP DP  RH WIND       PRES   REMARKS
GOODLAND KS    MOCLDY    71  53  52 SW8       29.91R
HILL CITY KS   FAIR      85  56  37 S14G21    29.85R
IMPERIAL NEB   CLEAR     74  56  53 CALM      29.88S
MCCOOK NEB     PTCLDY    77  61  57 E8        29.84S
AKRON CO       PTCLDY    70  40  33 SW7       29.99R
BURLINGTON CO  MOCLDY    68  47  46 S7        29.96R
LIMON CO       CLOUDY    58  49  72 NE5       30.06R
$$

...UNOFFICIAL OBSERVATIONS...

CITY           SKY/WX    TMP DP  RH WIND       PRES   REMARKS
COLBY KS       CLEAR     82  57  42 S10       29.90R
GOVE KS          N/A     83  32  16 MISG        N/A
LENORA KS        N/A     79  32  18 MISG        N/A
NORTON KS      CLEAR     81  52  36 S7        29.84S
TRENTON NEB      N/A     77  32  19 E8          N/A
KIT CARSON CO    N/A     73  50  43 MISG        N/A
YUMA CO          N/A     69  53  57 CALM        N/A
$$



USA.gov is the U.S. government's official web portal to all federal, state and local government web resources and services.